Location: Castle Hill Houses
(40.8186°N, 73.8497°W)
Time: 22:03:09
(UTC+00:00)

Helios 1A Rocket - Pass Details

Date: 26 January 2020
Orbit: 565 x 586 km, 98.3° (Epoch: 16 February)

Event Time Altitude Azimuth Distance (km) Brightness Sun altitude
Rises 11:11:17 0° 7° (N) 2,811 6.4 -11.5°
Reaches altitude 10° 11:13:29 10° 3° (N) 1,909 5.4 -11.1°
Maximum altitude 11:17:30 52° 287° (WNW) 730 3.0 -10.4°
Drops below altitude 10° 11:21:31 10° 211° (SSW) 1,902 5.4 -9.7°
Sets 11:23:42 0° 206° (SSW) 2,798 6.3 -9.3°
